owner,sensor,date,latitude,longitude,vertical_datum,sea_water_practical_salinity,qcFlag 
SCCF RECON,ioos:station:SCCF:13:1,2009-02-01T00:00:00Z,26.5255,-82.0032,2.12,31.42,1111122 
SCCF RECON,ioos:station:SCCF:13:1,2009-02-01T01:00:00Z,26.5255,-82.0032,2.05,31.39,1111122 
SCCF RECON,ioos:station:SCCF:13:1,2009-02-01T02:00:00Z,26.5255,-82.0032,1.98,30.67,1111122 
SCCF RECON,ioos:station:SCCF:13:1,2009-02-01T03:00:00Z,26.5255,-82.0032,1.93,26.92,1111122 
SCCF RECON,ioos:station:SCCF:13:1,2009-02-01T04:00:00Z,26.5255,-82.0032,1.89,24.61,1111122 
SCCF RECON,ioos:station:SCCF:13:1,2009-02-01T05:00:00Z,26.5255,-82.0032,1.884,23.25,1111122 
SCCF RECON,ioos:station:SCCF:13:1,2009-02-01T06:00:00Z,26.5255,-82.0032,1.93,22.84,1111122 
SCCF RECON,ioos:station:SCCF:13:1,2009-02-01T07:00:00Z,26.5255,-82.0032,2.0,23.34,1111122 
SCCF RECON,ioos:station:SCCF:13:1,2009-02-01T08:00:00Z,26.5255,-82.0032,2.06,27.24,1111122 
SCCF RECON,ioos:station:SCCF:13:1,2009-02-01T09:00:00Z,26.5255,-82.0032,2.1,28.78,1111122 
SCCF RECON,ioos:station:SCCF:13:1,2009-02-01T10:00:00Z,26.5255,-82.0032,2.13,29.45,1111122 
SCCF RECON,ioos:station:SCCF:13:1,2009-02-01T11:00:00Z,26.5255,-82.0032,2.15,29.64,1111122 
SCCF RECON,ioos:station:SCCF:13:1,2009-02-01T12:00:00Z,26.5255,-82.0032,2.12,30.26,1111122 
SCCF RECON,ioos:station:SCCF:13:1,2009-02-01T13:00:00Z,26.5255,-82.0032,2.07,30.66,1111122 
SCCF RECON,ioos:station:SCCF:13:1,2009-02-01T14:00:00Z,26.5255,-82.0032,2.03,28.96,1111122 
SCCF RECON,ioos:station:SCCF:13:1,2009-02-01T15:00:00Z,26.5255,-82.0032,2.0,26.99,1111122 
SCCF RECON,ioos:station:SCCF:13:1,2009-02-01T16:00:00Z,26.5255,-82.0032,1.98,24.45,1111122 
SCCF RECON,ioos:station:SCCF:13:1,2009-02-01T17:00:00Z,26.5255,-82.0032,2.03,24.0,1111122 
SCCF RECON,ioos:station:SCCF:13:1,2009-02-01T18:00:00Z,26.5255,-82.0032,2.098,27.2,1111122 
SCCF RECON,ioos:station:SCCF:13:1,2009-02-01T19:00:00Z,26.5255,-82.0032,2.16,29.53,1111122 
SCCF RECON,ioos:station:SCCF:13:1,2009-02-01T20:00:00Z,26.5255,-82.0032,2.22,30.33,1111122 
SCCF RECON,ioos:station:SCCF:13:1,2009-02-01T21:00:00Z,26.5255,-82.0032,2.29,31.21,1111122 
SCCF RECON,ioos:station:SCCF:13:1,2009-02-01T22:00:00Z,26.5255,-82.0032,2.34,31.8,1111122 
SCCF RECON,ioos:station:SCCF:13:1,2009-02-01T23:00:00Z,26.5255,-82.0032,2.36,32.1,1111122 
SCCF RECON,ioos:station:SCCF:13:1,2009-02-02T00:00:00Z,26.5255,-82.0032,2.34,32.07,1111122 
SCCF RECON,ioos:station:SCCF:13:1,2009-02-02T01:00:00Z,26.5255,-82.0032,2.26,31.92,1111122 
SCCF RECON,ioos:station:SCCF:13:1,2009-02-02T02:00:00Z,26.5255,-82.0032,2.2,32.03,1111122 
SCCF RECON,ioos:station:SCCF:13:1,2009-02-02T03:00:00Z,26.5255,-82.0032,2.13,30.89,1111122 
SCCF RECON,ioos:station:SCCF:13:1,2009-02-02T04:00:00Z,26.5255,-82.0032,2.07,28.0,1111122 
SCCF RECON,ioos:station:SCCF:13:1,2009-02-02T05:00:00Z,26.5255,-82.0032,2.02,27.17,1111122 
SCCF RECON,ioos:station:SCCF:13:1,2009-02-02T06:00:00Z,26.5255,-82.0032,1.99,26.45,1111122 
SCCF RECON,ioos:station:SCCF:13:1,2009-02-02T07:00:00Z,26.5255,-82.0032,2.004,25.64,1111122 
SCCF RECON,ioos:station:SCCF:13:1,2009-02-02T08:00:00Z,26.5255,-82.0032,2.04,25.71,1111122 
SCCF RECON,ioos:station:SCCF:13:1,2009-02-02T09:00:00Z,26.5255,-82.0032,2.099,27.21,1111122 
SCCF RECON,ioos:station:SCCF:13:1,2009-02-02T10:00:00Z,26.5255,-82.0032,2.14,29.39,1111122 
SCCF RECON,ioos:station:SCCF:13:1,2009-02-02T11:00:00Z,26.5255,-82.0032,2.18,30.14,1111122 
SCCF RECON,ioos:station:SCCF:13:1,2009-02-02T12:00:00Z,26.5255,-82.0032,2.22,30.55,1111122 
SCCF RECON,ioos:station:SCCF:13:1,2009-02-02T13:00:00Z,26.5255,-82.0032,2.24,31.3,1111122 
SCCF RECON,ioos:station:SCCF:13:1,2009-02-02T14:00:00Z,26.5255,-82.0032,2.229,31.83,1111122 
SCCF RECON,ioos:station:SCCF:13:1,2009-02-02T15:00:00Z,26.5255,-82.0032,2.19,31.96,1111122 
SCCF RECON,ioos:station:SCCF:13:1,2009-02-02T16:00:00Z,26.5255,-82.0032,2.16,31.84,1111122 
SCCF RECON,ioos:station:SCCF:13:1,2009-02-02T17:00:00Z,26.5255,-82.0032,2.17,31.07,1111122 
SCCF RECON,ioos:station:SCCF:13:1,2009-02-02T18:00:00Z,26.5255,-82.0032,2.22,31.63,1111122 
SCCF RECON,ioos:station:SCCF:13:1,2009-02-02T19:00:00Z,26.5255,-82.0032,2.26,31.92,1111122 
SCCF RECON,ioos:station:SCCF:13:1,2009-02-02T20:00:00Z,26.5255,-82.0032,2.31,32.19,1111122 
SCCF RECON,ioos:station:SCCF:13:1,2009-02-02T21:00:00Z,26.5255,-82.0032,2.4,32.66,1111122 
SCCF RECON,ioos:station:SCCF:13:1,2009-02-02T22:00:00Z,26.5255,-82.0032,2.48,32.77,1111122 
SCCF RECON,ioos:station:SCCF:13:1,2009-02-02T23:00:00Z,26.5255,-82.0032,2.51,32.86,1111122 
SCCF RECON,ioos:station:SCCF:13:1,2009-02-03T00:00:00Z,26.5255,-82.0032,2.55,33.04,1111122 
SCCF RECON,ioos:station:SCCF:13:1,2009-02-03T01:00:00Z,26.5255,-82.0032,2.53,33.12,1111122 
SCCF RECON,ioos:station:SCCF:13:1,2009-02-03T02:00:00Z,26.5255,-82.0032,2.44,33.0,1111122 
SCCF RECON,ioos:station:SCCF:13:1,2009-02-03T03:00:00Z,26.5255,-82.0032,2.37,32.8,1111122 
SCCF RECON,ioos:station:SCCF:13:1,2009-02-03T04:00:00Z,26.5255,-82.0032,2.304,32.8,1111122 
SCCF RECON,ioos:station:SCCF:13:1,2009-02-03T05:00:00Z,26.5255,-82.0032,2.23,32.55,1111122 
SCCF RECON,ioos:station:SCCF:13:1,2009-02-03T06:00:00Z,26.5255,-82.0032,2.17,31.64,1111122 
SCCF RECON,ioos:station:SCCF:13:1,2009-02-03T07:00:00Z,26.5255,-82.0032,2.11,30.59,1111122 
SCCF RECON,ioos:station:SCCF:13:1,2009-02-03T08:00:00Z,26.5255,-82.0032,2.06,29.32,1111122 
SCCF RECON,ioos:station:SCCF:13:1,2009-02-03T09:00:00Z,26.5255,-82.0032,2.05,28.66,1111122 
SCCF RECON,ioos:station:SCCF:13:1,2009-02-03T10:00:00Z,26.5255,-82.0032,2.06,27.99,1111122 
SCCF RECON,ioos:station:SCCF:13:1,2009-02-03T11:00:00Z,26.5255,-82.0032,2.15,27.66,1111122 
SCCF RECON,ioos:station:SCCF:13:1,2009-02-03T12:00:00Z,26.5255,-82.0032,2.22,28.52,1111122 
SCCF RECON,ioos:station:SCCF:13:1,2009-02-03T13:00:00Z,26.5255,-82.0032,2.24,29.67,1111122 
SCCF RECON,ioos:station:SCCF:13:1,2009-02-03T14:00:00Z,26.5255,-82.0032,2.21,30.0,1111122 
SCCF RECON,ioos:station:SCCF:13:1,2009-02-03T15:00:00Z,26.5255,-82.0032,2.15,28.71,1111122 
SCCF RECON,ioos:station:SCCF:13:1,2009-02-03T16:00:00Z,26.5255,-82.0032,2.13,27.89,1111122 
SCCF RECON,ioos:station:SCCF:13:1,2009-02-03T17:00:00Z,26.5255,-82.0032,2.14,27.4,1111122 
SCCF RECON,ioos:station:SCCF:13:1,2009-02-03T18:00:00Z,26.5255,-82.0032,2.15,26.76,1111122 
SCCF RECON,ioos:station:SCCF:13:1,2009-02-03T19:00:00Z,26.5255,-82.0032,2.16,26.8,1111122 
SCCF RECON,ioos:station:SCCF:13:1,2009-02-03T20:00:00Z,26.5255,-82.0032,2.18,26.92,1111122 
SCCF RECON,ioos:station:SCCF:13:1,2009-02-03T21:00:00Z,26.5255,-82.0032,2.19,27.81,1111122 
SCCF RECON,ioos:station:SCCF:13:1,2009-02-03T22:00:00Z,26.5255,-82.0032,2.21,28.48,1111122 
SCCF RECON,ioos:station:SCCF:13:1,2009-02-03T23:00:00Z,26.5255,-82.0032,2.24,28.28,1111122 
SCCF RECON,ioos:station:SCCF:13:1,2009-02-04T00:00:00Z,26.5255,-82.0032,2.26,29.3,1111122 
SCCF RECON,ioos:station:SCCF:13:1,2009-02-04T01:00:00Z,26.5255,-82.0032,2.27,29.59,1111122 
SCCF RECON,ioos:station:SCCF:13:1,2009-02-04T02:00:00Z,26.5255,-82.0032,2.29,30.23,1111122 
SCCF RECON,ioos:station:SCCF:13:1,2009-02-04T03:00:00Z,26.5255,-82.0032,2.24,29.78,1111122 
SCCF RECON,ioos:station:SCCF:13:1,2009-02-04T04:00:00Z,26.5255,-82.0032,2.18,28.86,1111122 
SCCF RECON,ioos:station:SCCF:13:1,2009-02-04T05:00:00Z,26.5255,-82.0032,2.12,28.19,1111122 
SCCF RECON,ioos:station:SCCF:13:1,2009-02-04T06:00:00Z,26.5255,-82.0032,2.06,27.18,1111122 
SCCF RECON,ioos:station:SCCF:13:1,2009-02-04T07:00:00Z,26.5255,-82.0032,2.0,26.14,1111122 
SCCF RECON,ioos:station:SCCF:13:1,2009-02-04T08:00:00Z,26.5255,-82.0032,1.94,24.46,1111122 
SCCF RECON,ioos:station:SCCF:13:1,2009-02-04T09:00:00Z,26.5255,-82.0032,1.91,23.53,1111122 
SCCF RECON,ioos:station:SCCF:13:1,2009-02-04T10:00:00Z,26.5255,-82.0032,1.91,23.06,1111122 
SCCF RECON,ioos:station:SCCF:13:1,2009-02-04T11:00:00Z,26.5255,-82.0032,1.959,22.45,1111122 
SCCF RECON,ioos:station:SCCF:13:1,2009-02-04T12:00:00Z,26.5255,-82.0032,2.02,22.58,1111122 
SCCF RECON,ioos:station:SCCF:13:1,2009-02-04T13:00:00Z,26.5255,-82.0032,2.1,25.99,1111122 
SCCF RECON,ioos:station:SCCF:13:1,2009-02-04T14:00:00Z,26.5255,-82.0032,2.17,27.35,1111122 
SCCF RECON,ioos:station:SCCF:13:1,2009-02-04T15:00:00Z,26.5255,-82.0032,2.21,28.71,1111122 
SCCF RECON,ioos:station:SCCF:13:1,2009-02-04T16:00:00Z,26.5255,-82.0032,2.2,29.63,1111122 
SCCF RECON,ioos:station:SCCF:13:1,2009-02-04T17:00:00Z,26.5255,-82.0032,2.153,29.97,1111122 
SCCF RECON,ioos:station:SCCF:13:1,2009-02-04T18:00:00Z,26.5255,-82.0032,2.14,29.23,1111122 
SCCF RECON,ioos:station:SCCF:13:1,2009-02-04T19:00:00Z,26.5255,-82.0032,2.16,30.16,1111122 
SCCF RECON,ioos:station:SCCF:13:1,2009-02-04T20:00:00Z,26.5255,-82.0032,2.2,29.74,1111122 
SCCF RECON,ioos:station:SCCF:13:1,2009-02-04T21:00:00Z,26.5255,-82.0032,2.23,29.96,1111122 
SCCF RECON,ioos:station:SCCF:13:1,2009-02-04T22:00:00Z,26.5255,-82.0032,2.25,30.1,1111122 
SCCF RECON,ioos:station:SCCF:13:1,2009-02-04T23:00:00Z,26.5255,-82.0032,2.27,30.61,1111122 
SCCF RECON,ioos:station:SCCF:13:1,2009-02-05T00:00:00Z,26.5255,-82.0032,2.3,30.76,1111122 
SCCF RECON,ioos:station:SCCF:13:1,2009-02-05T01:00:00Z,26.5255,-82.0032,2.34,30.72,1111122 
SCCF RECON,ioos:station:SCCF:13:1,2009-02-05T02:00:00Z,26.5255,-82.0032,2.36,30.86,1111122 
SCCF RECON,ioos:station:SCCF:13:1,2009-02-05T03:00:00Z,26.5255,-82.0032,2.34,31.01,1111122 
SCCF RECON,ioos:station:SCCF:13:1,2009-02-05T04:00:00Z,26.5255,-82.0032,2.29,29.27,1111122 
SCCF RECON,ioos:station:SCCF:13:1,2009-02-05T05:00:00Z,26.5255,-82.0032,2.24,28.71,1111122 
SCCF RECON,ioos:station:SCCF:13:1,2009-02-05T06:00:00Z,26.5255,-82.0032,2.17,27.98,1111122 
SCCF RECON,ioos:station:SCCF:13:1,2009-02-05T07:00:00Z,26.5255,-82.0032,2.094,26.65,1111122 
SCCF RECON,ioos:station:SCCF:13:1,2009-02-05T08:00:00Z,26.5255,-82.0032,2.02,25.4,1111122 
SCCF RECON,ioos:station:SCCF:13:1,2009-02-05T09:00:00Z,26.5255,-82.0032,1.95,24.6,1111122 
SCCF RECON,ioos:station:SCCF:13:1,2009-02-05T10:00:00Z,26.5255,-82.0032,1.89,23.44,1111122 
SCCF RECON,ioos:station:SCCF:13:1,2009-02-05T11:00:00Z,26.5255,-82.0032,1.84,22.52,1111122 
SCCF RECON,ioos:station:SCCF:13:1,2009-02-05T12:00:00Z,26.5255,-82.0032,1.82,21.98,1111122 
SCCF RECON,ioos:station:SCCF:13:1,2009-02-05T13:00:00Z,26.5255,-82.0032,1.834,21.71,1111122 
SCCF RECON,ioos:station:SCCF:13:1,2009-02-05T14:00:00Z,26.5255,-82.0032,1.87,21.62,1111122 
SCCF RECON,ioos:station:SCCF:13:1,2009-02-05T15:00:00Z,26.5255,-82.0032,1.91,21.53,1111122 
SCCF RECON,ioos:station:SCCF:13:1,2009-02-05T16:00:00Z,26.5255,-82.0032,1.97,21.35,1111122 
SCCF RECON,ioos:station:SCCF:13:1,2009-02-05T17:00:00Z,26.5255,-82.0032,2.02,21.82,1111122 
SCCF RECON,ioos:station:SCCF:13:1,2009-02-05T18:00:00Z,26.5255,-82.0032,2.028,24.35,1111122 
SCCF RECON,ioos:station:SCCF:13:1,2009-02-05T19:00:00Z,26.5255,-82.0032,2.04,25.66,1111122 
SCCF RECON,ioos:station:SCCF:13:1,2009-02-05T20:00:00Z,26.5255,-82.0032,2.07,26.44,1111122 
SCCF RECON,ioos:station:SCCF:13:1,2009-02-05T21:00:00Z,26.5255,-82.0032,2.09,28.74,1111122 
SCCF RECON,ioos:station:SCCF:13:1,2009-02-05T22:00:00Z,26.5255,-82.0032,2.13,31.76,1111122 
SCCF RECON,ioos:station:SCCF:13:1,2009-02-05T23:00:00Z,26.5255,-82.0032,2.19,31.51,1111122 
SCCF RECON,ioos:station:SCCF:13:1,2009-02-06T00:00:00Z,26.5255,-82.0032,2.25,32.11,1111122 
SCCF RECON,ioos:station:SCCF:13:1,2009-02-06T01:00:00Z,26.5255,-82.0032,2.31,32.19,1111122 
SCCF RECON,ioos:station:SCCF:13:1,2009-02-06T02:00:00Z,26.5255,-82.0032,2.38,32.32,1111122 
SCCF RECON,ioos:station:SCCF:13:1,2009-02-06T03:00:00Z,26.5255,-82.0032,2.418,32.49,1111122 
SCCF RECON,ioos:station:SCCF:13:1,2009-02-06T04:00:00Z,26.5255,-82.0032,2.401,32.54,1111122 
SCCF RECON,ioos:station:SCCF:13:1,2009-02-06T05:00:00Z,26.5255,-82.0032,2.34,32.51,1111122 
SCCF RECON,ioos:station:SCCF:13:1,2009-02-06T06:00:00Z,26.5255,-82.0032,2.27,31.62,1111122 
SCCF RECON,ioos:station:SCCF:13:1,2009-02-06T07:00:00Z,26.5255,-82.0032,2.19,30.35,1111122 
SCCF RECON,ioos:station:SCCF:13:1,2009-02-06T08:00:00Z,26.5255,-82.0032,2.11,29.11,1111122 
SCCF RECON,ioos:station:SCCF:13:1,2009-02-06T09:00:00Z,26.5255,-82.0032,2.05,27.05,1111122 
SCCF RECON,ioos:station:SCCF:13:1,2009-02-06T10:00:00Z,26.5255,-82.0032,1.99,26.09,1111122 
SCCF RECON,ioos:station:SCCF:13:1,2009-02-06T11:00:00Z,26.5255,-82.0032,1.93,25.18,1111122 
SCCF RECON,ioos:station:SCCF:13:1,2009-02-06T12:00:00Z,26.5255,-82.0032,1.891,24.45,1111122 
SCCF RECON,ioos:station:SCCF:13:1,2009-02-06T13:00:00Z,26.5255,-82.0032,1.9,23.76,1111122 
SCCF RECON,ioos:station:SCCF:13:1,2009-02-06T14:00:00Z,26.5255,-82.0032,1.94,23.33,1111122 
SCCF RECON,ioos:station:SCCF:13:1,2009-02-06T15:00:00Z,26.5255,-82.0032,1.99,23.54,1111122 
SCCF RECON,ioos:station:SCCF:13:1,2009-02-06T16:00:00Z,26.5255,-82.0032,2.02,26.68,1111122 
SCCF RECON,ioos:station:SCCF:13:1,2009-02-06T17:00:00Z,26.5255,-82.0032,2.1,28.1,1111122 
SCCF RECON,ioos:station:SCCF:13:1,2009-02-06T18:00:00Z,26.5255,-82.0032,2.14,29.83,1111122 
SCCF RECON,ioos:station:SCCF:13:1,2009-02-06T19:00:00Z,26.5255,-82.0032,2.17,31.26,1111122 
SCCF RECON,ioos:station:SCCF:13:1,2009-02-06T20:00:00Z,26.5255,-82.0032,2.19,31.83,1111122 
SCCF RECON,ioos:station:SCCF:13:1,2009-02-06T21:00:00Z,26.5255,-82.0032,2.2,31.93,1111122 
SCCF RECON,ioos:station:SCCF:13:1,2009-02-06T22:00:00Z,26.5255,-82.0032,2.22,31.87,1111122 
SCCF RECON,ioos:station:SCCF:13:1,2009-02-06T23:00:00Z,26.5255,-82.0032,2.25,31.67,1111122 
SCCF RECON,ioos:station:SCCF:13:1,2009-02-07T00:00:00Z,26.5255,-82.0032,2.29,31.84,1111122 
SCCF RECON,ioos:station:SCCF:13:1,2009-02-07T01:00:00Z,26.5255,-82.0032,2.36,32.19,1111122 
SCCF RECON,ioos:station:SCCF:13:1,2009-02-07T02:00:00Z,26.5255,-82.0032,2.43,32.43,1111122 
SCCF RECON,ioos:station:SCCF:13:1,2009-02-07T03:00:00Z,26.5255,-82.0032,2.48,32.93,1111122 
SCCF RECON,ioos:station:SCCF:13:1,2009-02-07T04:00:00Z,26.5255,-82.0032,2.51,33.0,1111122 
SCCF RECON,ioos:station:SCCF:13:1,2009-02-07T05:00:00Z,26.5255,-82.0032,2.53,32.98,1111122 
SCCF RECON,ioos:station:SCCF:13:1,2009-02-07T06:00:00Z,26.5255,-82.0032,2.497,32.98,1111122 
SCCF RECON,ioos:station:SCCF:13:1,2009-02-07T07:00:00Z,26.5255,-82.0032,2.43,32.41,1111122 
SCCF RECON,ioos:station:SCCF:13:1,2009-02-07T08:00:00Z,26.5255,-82.0032,2.34,29.98,1111122 
SCCF RECON,ioos:station:SCCF:13:1,2009-02-07T09:00:00Z,26.5255,-82.0032,2.26,29.7,1111122 
SCCF RECON,ioos:station:SCCF:13:1,2009-02-07T10:00:00Z,26.5255,-82.0032,2.18,28.45,1111122 
SCCF RECON,ioos:station:SCCF:13:1,2009-02-07T11:00:00Z,26.5255,-82.0032,2.1,28.13,1111122 
SCCF RECON,ioos:station:SCCF:13:1,2009-02-07T12:00:00Z,26.5255,-82.0032,2.03,27.48,1111122 
SCCF RECON,ioos:station:SCCF:13:1,2009-02-07T13:00:00Z,26.5255,-82.0032,2.0,26.5,1111122 
SCCF RECON,ioos:station:SCCF:13:1,2009-02-07T14:00:00Z,26.5255,-82.0032,2.02,25.95,1111122 
SCCF RECON,ioos:station:SCCF:13:1,2009-02-07T15:00:00Z,26.5255,-82.0032,2.07,25.39,1111122 
SCCF RECON,ioos:station:SCCF:13:1,2009-02-07T16:00:00Z,26.5255,-82.0032,2.12,26.43,1111122 
SCCF RECON,ioos:station:SCCF:13:1,2009-02-07T17:00:00Z,26.5255,-82.0032,2.187,28.42,1111122 
SCCF RECON,ioos:station:SCCF:13:1,2009-02-07T18:00:00Z,26.5255,-82.0032,2.25,29.78,1111122 
SCCF RECON,ioos:station:SCCF:13:1,2009-02-07T19:00:00Z,26.5255,-82.0032,2.28,30.99,1111122 
SCCF RECON,ioos:station:SCCF:13:1,2009-02-07T20:00:00Z,26.5255,-82.0032,2.28,31.53,1111122 
SCCF RECON,ioos:station:SCCF:13:1,2009-02-07T21:00:00Z,26.5255,-82.0032,2.26,31.99,1111122 
SCCF RECON,ioos:station:SCCF:13:1,2009-02-07T22:00:00Z,26.5255,-82.0032,2.24,31.13,1111122 
SCCF RECON,ioos:station:SCCF:13:1,2009-02-07T23:00:00Z,26.5255,-82.0032,2.23,30.33,1111122 
SCCF RECON,ioos:station:SCCF:13:1,2009-02-08T00:00:00Z,26.5255,-82.0032,2.26,30.7,1111122 
SCCF RECON,ioos:station:SCCF:13:1,2009-02-08T01:00:00Z,26.5255,-82.0032,2.3,31.83,1111122 
SCCF RECON,ioos:station:SCCF:13:1,2009-02-08T02:00:00Z,26.5255,-82.0032,2.35,32.29,1111122 
SCCF RECON,ioos:station:SCCF:13:1,2009-02-08T03:00:00Z,26.5255,-82.0032,2.41,32.89,1111122 
SCCF RECON,ioos:station:SCCF:13:1,2009-02-08T04:00:00Z,26.5255,-82.0032,2.48,33.3,1111122 
SCCF RECON,ioos:station:SCCF:13:1,2009-02-08T05:00:00Z,26.5255,-82.0032,2.529,33.67,1111122 
SCCF RECON,ioos:station:SCCF:13:1,2009-02-08T06:00:00Z,26.5255,-82.0032,2.55,33.57,1111122 
SCCF RECON,ioos:station:SCCF:13:1,2009-02-08T07:00:00Z,26.5255,-82.0032,2.51,33.56,1111122 
SCCF RECON,ioos:station:SCCF:13:1,2009-02-08T08:00:00Z,26.5255,-82.0032,2.44,32.99,1111122 
SCCF RECON,ioos:station:SCCF:13:1,2009-02-08T09:00:00Z,26.5255,-82.0032,2.35,30.62,1111122 
SCCF RECON,ioos:station:SCCF:13:1,2009-02-08T10:00:00Z,26.5255,-82.0032,2.27,29.98,1111122 
SCCF RECON,ioos:station:SCCF:13:1,2009-02-08T11:00:00Z,26.5255,-82.0032,2.19,28.79,1111122 
SCCF RECON,ioos:station:SCCF:13:1,2009-02-08T12:00:00Z,26.5255,-82.0032,2.12,27.98,1111122 
SCCF RECON,ioos:station:SCCF:13:1,2009-02-08T13:00:00Z,26.5255,-82.0032,2.05,27.43,1111122 
SCCF RECON,ioos:station:SCCF:13:1,2009-02-08T14:00:00Z,26.5255,-82.0032,2.02,26.41,1111122 
SCCF RECON,ioos:station:SCCF:13:1,2009-02-08T15:00:00Z,26.5255,-82.0032,2.04,25.62,1111122 
SCCF RECON,ioos:station:SCCF:13:1,2009-02-08T16:00:00Z,26.5255,-82.0032,2.08,25.13,1111122 
SCCF RECON,ioos:station:SCCF:13:1,2009-02-08T17:00:00Z,26.5255,-82.0032,2.13,26.22,1111122 
SCCF RECON,ioos:station:SCCF:13:1,2009-02-08T18:00:00Z,26.5255,-82.0032,2.2,28.32,1111122 
SCCF RECON,ioos:station:SCCF:13:1,2009-02-08T19:00:00Z,26.5255,-82.0032,2.23,29.61,1111122 
SCCF RECON,ioos:station:SCCF:13:1,2009-02-08T20:00:00Z,26.5255,-82.0032,2.23,30.84,1111122 
SCCF RECON,ioos:station:SCCF:13:1,2009-02-08T21:00:00Z,26.5255,-82.0032,2.19,30.58,1111122 
SCCF RECON,ioos:station:SCCF:13:1,2009-02-08T22:00:00Z,26.5255,-82.0032,2.17,29.23,1111122 
SCCF RECON,ioos:station:SCCF:13:1,2009-02-08T23:00:00Z,26.5255,-82.0032,2.16,27.72,1111122 
SCCF RECON,ioos:station:SCCF:13:1,2009-02-09T00:00:00Z,26.5255,-82.0032,2.16,25.38,1111122 
SCCF RECON,ioos:station:SCCF:13:1,2009-02-09T01:00:00Z,26.5255,-82.0032,2.18,27.71,1111122 
SCCF RECON,ioos:station:SCCF:13:1,2009-02-09T02:00:00Z,26.5255,-82.0032,2.2,30.89,1111122 
SCCF RECON,ioos:station:SCCF:13:1,2009-02-09T03:00:00Z,26.5255,-82.0032,2.27,31.58,1111122 
SCCF RECON,ioos:station:SCCF:13:1,2009-02-09T04:00:00Z,26.5255,-82.0032,2.33,32.81,1111122 
SCCF RECON,ioos:station:SCCF:13:1,2009-02-09T05:00:00Z,26.5255,-82.0032,2.4,33.6,1111122 
SCCF RECON,ioos:station:SCCF:13:1,2009-02-09T06:00:00Z,26.5255,-82.0032,2.46,33.79,1111122 
SCCF RECON,ioos:station:SCCF:13:1,2009-02-09T07:00:00Z,26.5255,-82.0032,2.49,33.6,1111122 
SCCF RECON,ioos:station:SCCF:13:1,2009-02-09T08:00:00Z,26.5255,-82.0032,2.46,33.46,1111122 
SCCF RECON,ioos:station:SCCF:13:1,2009-02-09T09:00:00Z,26.5255,-82.0032,2.39,33.1,1111122 
SCCF RECON,ioos:station:SCCF:13:1,2009-02-09T10:00:00Z,26.5255,-82.0032,2.313,30.85,1111122 
SCCF RECON,ioos:station:SCCF:13:1,2009-02-09T11:00:00Z,26.5255,-82.0032,2.23,29.37,1111122 
SCCF RECON,ioos:station:SCCF:13:1,2009-02-09T12:00:00Z,26.5255,-82.0032,2.16,28.59,1111122 
SCCF RECON,ioos:station:SCCF:13:1,2009-02-09T13:00:00Z,26.5255,-82.0032,2.091,27.37,1111122 
SCCF RECON,ioos:station:SCCF:13:1,2009-02-09T14:00:00Z,26.5255,-82.0032,2.05,27.05,1111122 
SCCF RECON,ioos:station:SCCF:13:1,2009-02-09T15:00:00Z,26.5255,-82.0032,2.06,26.43,1111122 
SCCF RECON,ioos:station:SCCF:13:1,2009-02-09T16:00:00Z,26.5255,-82.0032,2.1,26.0,1111122 
SCCF RECON,ioos:station:SCCF:13:1,2009-02-09T17:00:00Z,26.5255,-82.0032,2.15,27.14,1111122 
SCCF RECON,ioos:station:SCCF:13:1,2009-02-09T18:00:00Z,26.5255,-82.0032,2.21,29.31,1111122 
SCCF RECON,ioos:station:SCCF:13:1,2009-02-09T19:00:00Z,26.5255,-82.0032,2.26,31.32,1111122 
SCCF RECON,ioos:station:SCCF:13:1,2009-02-09T20:00:00Z,26.5255,-82.0032,2.3,32.44,1111122 
SCCF RECON,ioos:station:SCCF:13:1,2009-02-09T21:00:00Z,26.5255,-82.0032,2.29,32.57,1111122 
SCCF RECON,ioos:station:SCCF:13:1,2009-02-09T22:00:00Z,26.5255,-82.0032,2.253,32.37,1111122 
SCCF RECON,ioos:station:SCCF:13:1,2009-02-09T23:00:00Z,26.5255,-82.0032,2.22,30.36,1111122 
SCCF RECON,ioos:station:SCCF:13:1,2009-02-10T00:00:00Z,26.5255,-82.0032,2.19,28.26,1111122 
SCCF RECON,ioos:station:SCCF:13:1,2009-02-10T01:00:00Z,26.5255,-82.0032,2.18,27.05,1111122 
SCCF RECON,ioos:station:SCCF:13:1,2009-02-10T02:00:00Z,26.5255,-82.0032,2.19,26.93,1111122 
SCCF RECON,ioos:station:SCCF:13:1,2009-02-10T03:00:00Z,26.5255,-82.0032,2.213,30.71,1111122 
SCCF RECON,ioos:station:SCCF:13:1,2009-02-10T04:00:00Z,26.5255,-82.0032,2.26,31.61,1111122 
SCCF RECON,ioos:station:SCCF:13:1,2009-02-10T05:00:00Z,26.5255,-82.0032,2.33,32.98,1111122 
SCCF RECON,ioos:station:SCCF:13:1,2009-02-10T06:00:00Z,26.5255,-82.0032,2.4,33.73,1111122 
SCCF RECON,ioos:station:SCCF:13:1,2009-02-10T07:00:00Z,26.5255,-82.0032,2.45,33.87,1111122 
SCCF RECON,ioos:station:SCCF:13:1,2009-02-10T08:00:00Z,26.5255,-82.0032,2.47,33.91,1111122 
SCCF RECON,ioos:station:SCCF:13:1,2009-02-10T09:00:00Z,26.5255,-82.0032,2.441,33.85,1111122 
SCCF RECON,ioos:station:SCCF:13:1,2009-02-10T10:00:00Z,26.5255,-82.0032,2.39,33.17,1111122 
SCCF RECON,ioos:station:SCCF:13:1,2009-02-10T11:00:00Z,26.5255,-82.0032,2.32,31.42,1111122 
SCCF RECON,ioos:station:SCCF:13:1,2009-02-10T12:00:00Z,26.5255,-82.0032,2.24,29.58,1111122 
SCCF RECON,ioos:station:SCCF:13:1,2009-02-10T13:00:00Z,26.5255,-82.0032,2.17,28.28,1111122 
SCCF RECON,ioos:station:SCCF:13:1,2009-02-10T14:00:00Z,26.5255,-82.0032,2.12,27.59,1111122 
SCCF RECON,ioos:station:SCCF:13:1,2009-02-10T15:00:00Z,26.5255,-82.0032,2.1,27.01,1111122 
SCCF RECON,ioos:station:SCCF:13:1,2009-02-10T16:00:00Z,26.5255,-82.0032,2.13,26.5,1111122 
SCCF RECON,ioos:station:SCCF:13:1,2009-02-10T17:00:00Z,26.5255,-82.0032,2.18,28.38,1111122 
SCCF RECON,ioos:station:SCCF:13:1,2009-02-10T18:00:00Z,26.5255,-82.0032,2.24,29.9,1111122 
SCCF RECON,ioos:station:SCCF:13:1,2009-02-10T19:00:00Z,26.5255,-82.0032,2.289,32.07,1111122 
SCCF RECON,ioos:station:SCCF:13:1,2009-02-10T20:00:00Z,26.5255,-82.0032,2.33,33.14,1111122 
SCCF RECON,ioos:station:SCCF:13:1,2009-02-10T21:00:00Z,26.5255,-82.0032,2.35,33.19,1111122 
SCCF RECON,ioos:station:SCCF:13:1,2009-02-10T22:00:00Z,26.5255,-82.0032,2.32,33.2,1111122 
SCCF RECON,ioos:station:SCCF:13:1,2009-02-10T23:00:00Z,26.5255,-82.0032,2.28,33.07,1111122 
SCCF RECON,ioos:station:SCCF:13:1,2009-02-11T00:00:00Z,26.5255,-82.0032,2.24,31.84,1111122 
SCCF RECON,ioos:station:SCCF:13:1,2009-02-11T01:00:00Z,26.5255,-82.0032,2.21,29.43,1111122 
SCCF RECON,ioos:station:SCCF:13:1,2009-02-11T02:00:00Z,26.5255,-82.0032,2.17,28.89,1111122 
SCCF RECON,ioos:station:SCCF:13:1,2009-02-11T03:00:00Z,26.5255,-82.0032,2.18,28.55,1111122 
SCCF RECON,ioos:station:SCCF:13:1,2009-02-11T04:00:00Z,26.5255,-82.0032,2.23,31.24,1111122 
SCCF RECON,ioos:station:SCCF:13:1,2009-02-11T05:00:00Z,26.5255,-82.0032,2.3,31.82,1111122 
SCCF RECON,ioos:station:SCCF:13:1,2009-02-11T06:00:00Z,26.5255,-82.0032,2.362,33.27,1111122 
SCCF RECON,ioos:station:SCCF:13:1,2009-02-11T07:00:00Z,26.5255,-82.0032,2.43,34.04,1111122 
SCCF RECON,ioos:station:SCCF:13:1,2009-02-11T08:00:00Z,26.5255,-82.0032,2.5,34.08,1111122 
SCCF RECON,ioos:station:SCCF:13:1,2009-02-11T09:00:00Z,26.5255,-82.0032,2.51,34.11,1111122 
SCCF RECON,ioos:station:SCCF:13:1,2009-02-11T10:00:00Z,26.5255,-82.0032,2.46,34.05,1111122 
SCCF RECON,ioos:station:SCCF:13:1,2009-02-11T11:00:00Z,26.5255,-82.0032,2.39,33.67,1111122 
SCCF RECON,ioos:station:SCCF:13:1,2009-02-11T12:00:00Z,26.5255,-82.0032,2.33,32.1,1111122 
SCCF RECON,ioos:station:SCCF:13:1,2009-02-11T13:00:00Z,26.5255,-82.0032,2.27,31.21,1111122 
SCCF RECON,ioos:station:SCCF:13:1,2009-02-11T14:00:00Z,26.5255,-82.0032,2.22,29.98,1111122 
SCCF RECON,ioos:station:SCCF:13:1,2009-02-11T15:00:00Z,26.5255,-82.0032,2.18,29.02,1111122 
SCCF RECON,ioos:station:SCCF:13:1,2009-02-11T16:00:00Z,26.5255,-82.0032,2.2,28.55,1111122 
SCCF RECON,ioos:station:SCCF:13:1,2009-02-11T17:00:00Z,26.5255,-82.0032,2.27,30.4,1111122 
SCCF RECON,ioos:station:SCCF:13:1,2009-02-11T18:00:00Z,26.5255,-82.0032,2.33,31.1,1111122 
SCCF RECON,ioos:station:SCCF:13:1,2009-02-11T19:00:00Z,26.5255,-82.0032,2.37,32.95,1111122 